sat.trackr.live / text

‹ back to catalog

STARLINK-38080

NORAD 69989 · 2026-159Q

PAYLOAD ACTIVE UNKNOWN

§ Identity

Operator
Country
US
Launch date
2026-07-11
Launch site
AFWTR
Launch vehicle
Mass (kg)
RCS (m²)

Purposes: comms

External: N2YO · Heavens-Above · Gunter

§ Orbital elements

Epoch: 2026-09-20T04:00:03.000096Z

Period
93.69 min
Inclination
97.2843°
Eccentricity
0.0001841
Mean motion
15.36990238 rev/d
Perigee alt
453.8 km
Apogee alt
456.3 km
Semi-major
6,833.2 km
B*
-1.3728e-3
RAAN
104.9783°
Arg perigee
102.4823°
Mean anomaly
310.0870°
Rev number
599

§ Raw data

STARLINK-380801 69989U 26159Q   26263.16670139 -.00049369  00000+0 -13728-2 0  99912 69989  97.2843 104.9783 0001841 102.4823 310.0870 15.36990238  5990

JSON: /api/v1/satellites/69989 · /tle

For live sub-satellite position, see the globe view (requires WebGL).

§ Visibility from observer

Set your observer location to see the next 7 days of passes ≥ 10°. The values pass through the URL so the page stays shareable.

No JS? Fill the form by hand. The geolocation button needs JavaScript.